(353276) = 2010 FL83

Discovered at Mount Lemmon on 2010-03-19 by Mt. Lemmon Survey.

Orbit

Orbit type: Main Belt

Note: WebGL enabled browser required.

epoch2024-03-31.0
epoch JD2460400.5
perihelion date2021-08-16.54147
perihelion JD2459443.04147
argument of perihelion (°)145.97069
ascending node (°)119.99434
inclination (°)5.01490
eccentricity0.1397316
perihelion distance (AU)2.0256740
Tisserand w.r.t. Jupiter3.5
ΔV w.r.t. Earth (km/sec)9.0
semimajor axis (AU)2.3547001
mean anomaly (°)261.16827
mean daily motion (°/day)0.27277240
aphelion distance (AU)2.684
period (years)3.61
P-vector [x]-0.06851011
P-vector [y]-0.93368412
P-vector [z]-0.35148305
Q-vector [x]0.99477369
Q-vector [y]-0.03719708
Q-vector [z]-0.09508774
absolute magnitude17.52
phase slope0.15
uncertainty0
referenceMPEC 2024-E144
observations used265
oppositions12
arc length (days)6612
first opposition used2006
last opposition used2024
residual rms (arc-secs)0.70
perturbers coarse indicatorM-v
perturbers precise indicator003Ek
first observation date used2006-02-01.0
last observation date used2024-03-10.0
computer nameMPCLINUX
JD of orbit computation2456314.727847
perihelion JD uncertainty (days)1.9160E-04
argument of perihelion uncertainty (°)8.3956E-05
ascending node uncertainty (°)7.3559E-05
inclination uncertainty (°)6.5775E-06
eccentricity uncertainty 5.4296E-08
perihelion distance uncertainty (AU)1.3427E-07
Minimum Orbit Intersection Distances (in AU)
for orbit epoch: 2460400.5, reference: E2024-EE4
Mercury1.5642
Venus1.30087
Earth1.01183
Mars0.54191
Jupiter2.38841
Saturn6.36045
Uranus15.981
Neptune27.2239

Observations

270 total observations over interval: 2006 02 01.33888 – 2024 03 10.293274
These data are available for download (format description).

Date (UT) J2000 RA J2000 Dec Magn Location Ref
2006 02 01.33888 10 24 59.07 +13 32 42.5 20.8 V 691 – Steward Observatory, Kitt Peak-Spacewatch MPS 346412
2006 02 01.35617 10 24 58.25 +13 32 49.9 20.7 V 691 – Steward Observatory, Kitt Peak-Spacewatch MPS 346412
2006 02 01.37345 10 24 57.43 +13 32 57.2 21.0 V 691 – Steward Observatory, Kitt Peak-Spacewatch MPS 346412
2008 11 30.35279 05 59 20.83 +18 39 41.0 21.2 V G96 – Mt. Lemmon Survey MPS 346412
2008 11 30.35980 05 59 20.50 +18 39 41.2 21.1 V G96 – Mt. Lemmon Survey MPS 346412
2008 11 30.36526 05 59 20.22 +18 39 41.4 20.9 V G96 – Mt. Lemmon Survey MPS 346412
2008 11 30.37068 05 59 19.89 +18 39 40.3 20.4 V G96 – Mt. Lemmon Survey MPS 346412
2010 01 14.828921 13 29 34.81 -04 17 58.5   C51 – WISE MPS 329415
2010 01 14.96135 13 29 43.85 -04 18 29.3   C51 – WISE MPS 329415
2010 01 15.093659 13 29 52.92 -04 18 58.2   C51 – WISE MPS 329415
2010 01 15.292179 13 30 06.47 -04 19 46.7   C51 – WISE MPS 329415
2010 01 15.556788 13 30 24.437 -04 20 49.67   C51 – WISE MPS 879335
2010 01 15.689093 13 30 33.51 -04 21 16.3   C51 – WISE MPS 329415
2010 01 15.68922 13 30 33.50 -04 21 18.5   C51 – WISE MPS 329415
2010 01 15.953830 13 30 51.434 -04 22 18.77   C51 – WISE MPS 879335
2010 03 19.41160 13 59 47.07 -03 22 59.4 20.2 V G96 – Mt. Lemmon Survey MPS 320845
2010 03 19.41696 13 59 46.93 -03 22 57.5 20.2 V G96 – Mt. Lemmon Survey MPS 320845
2010 03 19.42240 13 59 46.78 -03 22 55.5 20.3 V G96 – Mt. Lemmon Survey MPS 320845
2010 04 04.34685 13 50 01.35 -01 41 40.2 21.0 V 703 – Catalina Sky Survey MPS 320845
2010 04 04.35380 13 50 00.99 -01 41 36.8 19.7 V 703 – Catalina Sky Survey MPS 320845
2010 04 04.36072 13 50 00.56 -01 41 33.2 20.2 V 703 – Catalina Sky Survey MPS 320845
2010 04 04.36776 13 50 00.20 -01 41 29.3 19.6 V 703 – Catalina Sky Survey MPS 320845
2010 04 14.33720 13 41 23.89 -00 36 58.2 19.8 V G96 – Mt. Lemmon Survey MPS 330917
2010 04 14.34383 13 41 23.49 -00 36 56.1 19.8 V G96 – Mt. Lemmon Survey MPS 330918
2010 04 14.35046 13 41 23.13 -00 36 53.4 19.8 V G96 – Mt. Lemmon Survey MPS 330918
2010 04 14.35713 13 41 22.74 -00 36 51.1 19.8 V G96 – Mt. Lemmon Survey MPS 330918
2010 05 07.23269 13 21 58.24 +01 00 50.9 20.7 V 703 – Catalina Sky Survey MPS 329415
2010 05 07.24096 13 21 57.92 +01 00 50.1 20.4 V 703 – Catalina Sky Survey MPS 329415
2010 05 07.24919 13 21 57.42 +01 00 52.6 21.3 V 703 – Catalina Sky Survey MPS 329415
2010 05 07.25746 13 21 57.20 +01 00 53.7 19.4 V 703 – Catalina Sky Survey MPS 329415
2010 07 10.239662 13 36 16.35 -03 59 16.9   C51 – WISE MPS 351417
2010 07 10.371965 13 36 24.61 -04 00 31.4   C51 – WISE MPS 351417
2010 07 10.504269 13 36 32.80 -04 01 43.1   C51 – WISE MPS 351418
2010 07 10.636573 13 36 41.16 -04 02 58.0   C51 – WISE MPS 351418
2010 07 10.768876 13 36 49.47 -04 04 12.2   C51 – WISE MPS 351418
2010 07 10.834964 13 36 53.64 -04 04 50.1   C51 – WISE MPS 351418
2010 07 10.901181 13 36 57.75 -04 05 27.3   C51 – WISE MPS 351418
2010 07 10.967269 13 37 02.03 -04 06 03.0   C51 – WISE MPS 351418
2010 07 11.033484 13 37 06.13 -04 06 40.7   C51 – WISE MPS 351418
2010 07 11.099572 13 37 10.37 -04 07 18.1   C51 – WISE MPS 351418
2010 07 11.165787 13 37 14.57 -04 07 54.2   C51 – WISE MPS 351418
2010 07 11.23188 13 37 18.72 -04 08 32.3   C51 – WISE MPS 351418
2010 07 11.364179 13 37 27.21 -04 09 45.8   C51 – WISE MPS 351418
2010 07 11.496484 13 37 35.52 -04 11 00.4   C51 – WISE MPS 351418
2010 07 11.628787 13 37 44.07 -04 12 15.3   C51 – WISE MPS 351418
2010 07 11.761091 13 37 52.50 -04 13 29.4   C51 – WISE MPS 351418
2011 09 23.46887 01 50 38.929 +02 55 33.05 21.3 w F51 – Pan-STARRS 1, Haleakala MPS 392770
2011 09 23.48424 01 50 38.249 +02 55 27.41 21.4 w F51 – Pan-STARRS 1, Haleakala MPS 392770
2011 09 23.49973 01 50 37.593 +02 55 21.67 21.5 w F51 – Pan-STARRS 1, Haleakala MPS 392770
2011 09 23.51537 01 50 36.936 +02 55 15.90 21.4 w F51 – Pan-STARRS 1, Haleakala MPS 392770
2011 10 17.49997 01 29 42.452 +00 26 36.94 20.4 i F51 – Pan-STARRS 1, Haleakala MPS 395119
2011 10 17.51212 01 29 41.726 +00 26 32.92 20.3 i F51 – Pan-STARRS 1, Haleakala MPS 395119
2011 10 20.28031 01 27 04.21 +00 11 39.8 20.6 V G96 – Mt. Lemmon Survey MPS 395119
2011 10 20.28677 01 27 03.81 +00 11 37.9 20.3 V G96 – Mt. Lemmon Survey MPS 395119
2011 10 20.29328 01 27 03.45 +00 11 35.9 20.5 V G96 – Mt. Lemmon Survey MPS 395119
2011 10 20.29982 01 27 03.09 +00 11 33.7 20.6 V G96 – Mt. Lemmon Survey MPS 395119
2011 10 25.32539 01 22 24.604 -00 12 41.31 21.1 g F51 – Pan-STARRS 1, Haleakala MPS 396433
2011 10 25.33768 01 22 23.913 -00 12 44.66 21.2 g F51 – Pan-STARRS 1, Haleakala MPS 396433
2013 01 05.28882 08 39 37.30 +18 16 24.3 20.7 V 691 – Steward Observatory, Kitt Peak-Spacewatch MPS 449673
2013 01 05.30649 08 39 36.38 +18 16 28.7 21.3 V 691 – Steward Observatory, Kitt Peak-Spacewatch MPS 449673
2013 01 05.32415 08 39 35.46 +18 16 34.0 21.5 V 691 – Steward Observatory, Kitt Peak-Spacewatch MPS 449673
2013 01 09.22778 08 36 12.50 +18 36 23.4 21.2 V 691 – Steward Observatory, Kitt Peak-Spacewatch MPS 449673
2013 01 09.24548 08 36 11.61 +18 36 29.0 21.1 V 691 – Steward Observatory, Kitt Peak-Spacewatch MPS 449673
2013 01 09.26317 08 36 10.61 +18 36 34.3 21.6 V 691 – Steward Observatory, Kitt Peak-Spacewatch MPS 449673
2013 01 10.53239 08 35 00.303 +18 43 16.23 20.8 w F51 – Pan-STARRS 1, Haleakala MPS 449673
2013 01 10.54624 08 34 59.501 +18 43 20.55 21.0 w F51 – Pan-STARRS 1, Haleakala MPS 449673
2013 01 10.56011 08 34 58.699 +18 43 24.86 21.0 w F51 – Pan-STARRS 1, Haleakala MPS 449673
2013 01 10.57396 08 34 57.888 +18 43 29.12 21.1 w F51 – Pan-STARRS 1, Haleakala MPS 449673
2013 01 16.50381 08 29 10.036 +19 15 37.19 20.9 w F51 – Pan-STARRS 1, Haleakala MPS 451013
2013 01 16.51823 08 29 09.121 +19 15 41.91 20.9 w F51 – Pan-STARRS 1, Haleakala MPS 451013
2013 01 16.53267 08 29 08.207 +19 15 46.59 20.7 w F51 – Pan-STARRS 1, Haleakala MPS 451013
2013 01 16.54721 08 29 07.290 +19 15 51.37 20.7 w F51 – Pan-STARRS 1, Haleakala MPS 451013
2013 01 21.50444 08 23 58.040 +19 43 15.67 20.4 i F51 – Pan-STARRS 1, Haleakala MPS 452350
2013 01 21.51723 08 23 57.193 +19 43 19.83 20.4 i F51 – Pan-STARRS 1, Haleakala MPS 452350
2013 02 12.28932 08 02 02.713 +21 32 02.22 21.2 w F51 – Pan-STARRS 1, Haleakala MPS 456336
2013 02 12.30250 08 02 02.003 +21 32 05.71 21.3 w F51 – Pan-STARRS 1, Haleakala MPS 456336
2013 02 12.32895 08 02 00.584 +21 32 12.23 21.1 w F51 – Pan-STARRS 1, Haleakala MPS 456336
2015 10 08.48071 04 42 58.384 +15 55 31.92 22.0 w F51 – Pan-STARRS 1, Haleakala MPS 631033
2015 10 08.49285 04 42 58.316 +15 55 30.78 22.2 w F51 – Pan-STARRS 1, Haleakala MPS 631033
2015 10 08.50501 04 42 58.273 +15 55 29.58 21.9 w F51 – Pan-STARRS 1, Haleakala MPS 631033
2015 10 08.51712 04 42 58.218 +15 55 28.42 22.0 w F51 – Pan-STARRS 1, Haleakala MPS 631033
2015 11 10.35638 04 25 57.69 +14 46 35.2 22.3 V G96 – Mt. Lemmon Survey MPS 650216
2015 11 10.36240 04 25 57.38 +14 46 34.4 22.0 V G96 – Mt. Lemmon Survey MPS 650216
2015 11 10.36843 04 25 57.05 +14 46 33.4 21.4 V G96 – Mt. Lemmon Survey MPS 650216
2015 11 10.37445 04 25 56.69 +14 46 32.5 21.4 V G96 – Mt. Lemmon Survey MPS 650216
2015 12 01.45153 04 04 11.304 +14 04 11.79 20.9 r F51 – Pan-STARRS 1, Haleakala MPS 656941
2015 12 01.47432 04 04 09.848 +14 04 09.67 20.8 r F51 – Pan-STARRS 1, Haleakala MPS 656941
2015 12 01.48587 04 04 09.104 +14 04 08.60 20.9 r F51 – Pan-STARRS 1, Haleakala MPS 656941
2015 12 05.45490 04 00 03.561 +13 58 42.68 21.2 w F51 – Pan-STARRS 1, Haleakala MPS 659517
2015 12 05.47891 04 00 02.068 +13 58 40.76 21.0 w F51 – Pan-STARRS 1, Haleakala MPS 659517
2015 12 05.49097 04 00 01.312 +13 58 39.99 21.0 w F51 – Pan-STARRS 1, Haleakala MPS 659517
2015 12 16.23852 03 50 03.13 +13 50 28.6 21.8 V G96 – Mt. Lemmon Survey MPS 662538
2015 12 16.24309 03 50 02.90 +13 50 28.9 21.3 V G96 – Mt. Lemmon Survey MPS 662538
2015 12 16.24768 03 50 02.66 +13 50 28.5 22.2 V G96 – Mt. Lemmon Survey MPS 662538
2015 12 16.25227 03 50 02.40 +13 50 28.0 21.3 V G96 – Mt. Lemmon Survey MPS 662538
2016 01 31.26426 03 40 21.748 +15 21 58.16 22.4 w F51 – Pan-STARRS 1, Haleakala MPS 678728
2016 01 31.28987 03 40 22.319 +15 22 03.97 22.4 w F51 – Pan-STARRS 1, Haleakala MPS 678728
